EB5ETD Weather Reports


Display with metric or nautical units.
time (UTC)temp
F
wind
direction
speed
MPH
gust
MPH
rain 1hr
in
rain 24hr
in
rain mn
in
humidity
%
barometer
mb
20260510072504 61 225 1.0 2.0 0.00 1.12 0.00 70 1022.3
20260510072003 61 129 0.0 2.0 0.00 1.13 0.00 71 1022.1
20260510071504 62 133 1.0 2.0 0.00 1.14 0.00 70 1022.0
20260510071004 61 225 0.0 0.0 0.00 1.16 0.00 70 1022.2
20260510070004 61 225 0.0 1.0 0.00 1.19 0.00 71 1022.3
20260510065504 58 225 0.0 1.0 0.00 1.21 0.00 77 1022.8
20260510065004 58 225 1.0 1.0 0.00 1.22 0.00 78 1022.9
20260510064503 55 225 0.0 1.0 0.00 1.22 0.00 82 1023.0
20260510063504 55 201 1.0 3.0 0.00 1.22 0.00 82 1023.0
20260510063004 55 235 1.0 3.0 0.00 1.23 0.00 82 1023.1
20260510062504 54 242 0.0 0.0 0.00 1.23 0.00 84 1023.1
20260510062004 53 242 0.0 0.0 0.00 1.23 0.00 84 1023.2
20260510061504 52 242 0.0 0.0 0.00 1.23 0.00 85 1023.3
20260510061003 52 242 0.0 1.0 0.00 1.23 0.00 86 1023.4
20260510060504 52 242 0.0 0.0 0.00 1.23 0.00 87 1023.4
20260510055504 51 242 0.0 1.0 0.00 1.23 0.00 87 1023.5
20260510054504 51 242 0.0 1.0 0.00 1.23 0.00 87 1023.4
20260510054004 51 242 0.0 1.0 0.00 1.23 0.00 87 1023.4
20260510053503 51 242 1.0 2.0 0.00 1.23 0.00 87 1023.5
20260510053004 50 242 1.0 1.0 0.00 1.23 0.00 88 1023.2
20260510052504 50 242 1.0 2.0 0.00 1.23 0.00 88 1023.4
20260510052004 50 242 1.0 2.0 0.00 1.23 0.00 89 1023.5
20260510051503 50 242 0.0 1.0 0.00 1.23 0.00 90 1023.3
20260510051003 49 242 0.0 2.0 0.00 1.23 0.00 90 1023.3
20260510050504 49 203 0.0 1.0 0.00 1.23 0.00 90 1023.4
20260510050004 49 203 0.0 0.0 0.00 1.23 0.00 90 1023.4
20260510045504 49 203 0.0 0.0 0.00 1.23 0.00 90 1023.3
20260510045004 49 203 0.0 1.0 0.00 1.23 0.00 90 1023.6
20260510044505 49 215 1.0 2.0 0.00 1.23 0.00 90 1023.5
20260510043504 50 242 0.0 0.0 0.00 1.23 0.00 90 1023.2
20260510043004 50 242 0.0 1.0 0.00 1.23 0.00 90 1023.2
20260510042005 50 242 1.0 1.0 0.00 1.23 0.00 91 1023.1
20260510041504 50 242 0.0 0.0 0.00 1.23 0.00 91 1022.9
20260510041004 49 242 0.0 1.0 0.00 1.23 0.00 91 1023.0
20260510040004 50 242 0.0 0.0 0.00 1.23 0.00 91 1023.3
20260510035504 50 242 0.0 0.0 0.00 1.23 0.00 91 1022.8
20260510035004 50 242 0.0 1.0 0.00 1.23 0.00 92 1022.8
20260510034503 50 242 1.0 1.0 0.00 1.23 0.00 92 1022.8
20260510034003 50 242 0.0 1.0 0.00 1.23 0.00 92 1022.8
20260510033003 50 242 0.0 1.0 0.00 1.23 0.00 92 1022.9
20260510032004 50 242 0.0 1.0 0.00 1.23 0.00 92 1022.8
20260510031503 50 226 2.0 2.0 0.00 1.23 0.00 92 1022.8
20260510031003 50 222 1.0 1.0 0.00 1.23 0.00 93 1022.8
20260510030504 50 222 1.0 1.0 0.00 1.23 0.00 93 1022.8
20260510030004 50 221 0.0 1.0 0.00 1.23 0.00 93 1022.8
20260510025504 50 221 0.0 1.0 0.00 1.23 0.00 92 1022.8
20260510025003 50 222 1.0 2.0 0.00 1.23 0.00 92 1022.9
20260510024504 50 232 1.0 2.0 0.00 1.23 0.00 92 1022.9
20260510023504 51 232 1.0 1.0 0.00 1.23 0.00 93 1022.8
20260510023004 51 232 1.0 1.0 0.00 1.23 0.00 93 1023.0
20260510022504 51 232 0.0 1.0 0.00 1.23 0.00 93 1022.8
20260510022004 51 232 0.0 1.0 0.00 1.23 0.00 93 1022.7
20260510021004 51 241 0.0 0.0 0.00 1.23 0.00 93 1022.7
20260510020503 51 241 0.0 0.0 0.00 1.23 0.00 92 1022.9
20260510020004 51 241 0.0 1.0 0.00 1.23 0.00 93 1022.7
20260510015004 51 241 1.0 2.0 0.00 1.23 0.00 92 1022.5
20260510014504 51 241 1.0 2.0 0.00 1.23 0.00 92 1022.7
20260510014004 51 218 0.0 1.0 0.00 1.23 0.00 92 1022.5
20260510013503 51 217 1.0 2.0 0.00 1.23 0.00 92 1022.7
20260510013005 51 195 0.0 3.0 0.00 1.23 0.00 92 1022.5
20260510012504 52 225 0.0 1.0 0.00 1.23 0.00 92 1022.5
20260510012004 52 226 0.0 1.0 0.00 1.23 0.00 92 1022.6
20260510011504 52 210 1.0 2.0 0.00 1.23 0.00 92 1022.7
20260510010504 52 207 1.0 2.0 0.00 1.23 0.00 92 1022.6
20260510010004 52 220 0.0 1.0 0.00 1.23 0.00 92 1022.4
20260510005504 52 225 0.0 1.0 0.00 1.23 0.00 92 1022.4
20260510005005 52 219 1.0 1.0 0.00 1.23 0.00 91 1022.8
20260510004504 52 213 1.0 1.0 0.00 1.23 0.00 91 1022.6
20260510004004 52 207 0.0 0.0 0.00 1.23 0.00 91 1022.9
20260510003505 53 207 0.0 2.0 0.00 1.23 0.00 91 1023.0
20260510003004 53 218 1.0 2.0 0.00 1.23 0.00 90 1022.8
20260510002504 53 238 0.0 1.0 0.00 1.23 0.00 90 1022.9
20260510002004 53 237 1.0 2.0 0.00 1.23 0.00 89 1022.9
20260510001503 53 267 1.0 2.0 0.00 1.23 0.00 89 1023.1
20260510001004 53 216 0.0 1.0 0.00 1.23 0.00 89 1022.7
20260510000504 54 216 0.0 1.0 0.00 1.23 0.00 89 1023.0
20260510000004 54 215 1.0 2.0 0.00 1.23 0.00 88 1023.0
20260509235504 54 234 1.0 2.0 0.00 1.23 0.00 88 1023.1
20260509235003 54 237 2.0 2.0 0.00 1.23 0.00 88 1023.1
20260509234504 54 239 1.0 3.0 0.00 1.23 0.00 88 1023.1
20260509234003 54 241 2.0 5.0 0.00 1.23 0.00 88 1023.2
20260509233004 55 211 1.0 2.0 0.00 1.23 0.00 88 1023.1
20260509232503 55 196 0.0 1.0 0.00 1.23 0.00 87 1023.1
20260509232004 55 54 1.0 1.0 0.00 1.23 0.00 87 1023.0
20260509231503 55 52 1.0 2.0 0.00 1.23 0.00 87 1023.2
20260509231004 55 4 0.0 1.0 0.00 1.23 0.00 87 1023.1
20260509230504 55 4 1.0 3.0 0.00 1.23 0.00 86 1022.7
20260509225504 56 225 0.0 5.0 0.00 1.23 0.00 84 1022.7
20260509224504 56 234 3.0 6.0 0.00 1.23 0.00 84 1022.7
20260509223504 55 222 1.0 2.0 0.00 1.23 0.00 88 1022.6
20260509223003 55 227 1.0 2.0 0.00 1.23 0.00 89 1022.7
20260509222504 55 56 0.0 0.0 0.00 1.23 0.00 90 1022.8
20260509222005 55 56 0.0 0.0 0.00 1.23 0.00 89 1022.8
20260509221503 55 56 0.0 0.0 0.00 1.23 0.00 89 1022.8
20260509220504 56 56 0.0 0.0 0.00 1.23 0.00 88 1022.8
20260509220004 56 56 0.0 0.0 0.00 1.23 0.00 88 1022.9
20260509215504 56 56 0.0 0.0 0.00 1.23 1.23 88 1022.7
20260509215005 57 56 0.0 1.0 0.00 1.23 1.23 87 1022.6
20260509214504 57 56 0.0 1.0 0.00 1.23 1.23 87 1022.5
20260509214004 57 56 0.0 1.0 0.00 1.23 1.23 86 1022.4
20260509213504 57 56 0.0 2.0 0.00 1.23 1.23 85 1022.5
20260509213004 58 61 1.0 2.0 0.00 1.23 1.23 85 1022.5
20260509212503 58 61 0.0 1.0 0.00 1.23 1.23 85 1022.6
20260509212004 58 61 0.0 3.0 0.00 1.23 1.23 85 1022.6
20260509211503 58 77 2.0 3.0 0.00 1.23 1.23 85 1022.4
20260509211004 58 97 1.0 1.0 0.00 1.23 1.23 85 1022.6
20260509210504 58 98 0.0 2.0 0.00 1.23 1.23 84 1022.4
20260509210004 58 100 0.0 1.0 0.00 1.23 1.23 84 1022.2
20260509205503 58 100 2.0 3.0 0.00 1.23 1.23 83 1022.2
20260509204504 58 245 1.0 2.0 0.00 1.23 1.23 83 1021.9
20260509204004 58 262 1.0 5.0 0.00 1.23 1.23 82 1022.1
20260509203504 58 236 2.0 6.0 0.00 1.23 1.23 82 1021.9
20260509203004 58 243 2.0 9.0 0.00 1.23 1.23 82 1021.7
20260509202504 58 224 4.0 7.0 0.00 1.23 1.23 82 1021.9
20260509202003 58 250 5.0 9.0 0.00 1.23 1.23 82 1021.6
20260509201504 58 244 4.0 9.0 0.00 1.23 1.23 82 1021.7
20260509200504 58 249 4.0 9.0 0.00 1.23 1.23 83 1021.7
20260509200004 58 231 5.0 10.0 0.00 1.23 1.23 83 1021.4
20260509195504 58 240 3.0 8.0 0.00 1.23 1.23 83 1021.6
20260509195004 58 229 3.0 9.0 0.00 1.23 1.23 83 1021.3
20260509194503 58 227 4.0 10.0 0.00 1.23 1.23 83 1021.3
20260509194004 58 252 5.0 10.0 0.00 1.23 1.23 84 1021.3
20260509193504 58 229 1.0 5.0 0.00 1.23 1.23 85 1021.2
20260509193004 58 213 2.0 5.0 0.00 1.23 1.23 84 1021.0
20260509192505 58 226 3.0 9.0 0.00 1.23 1.23 84 1021.0
20260509192004 58 251 6.0 9.0 0.00 1.23 1.23 84 1020.9
20260509191504 58 241 2.0 5.0 0.00 1.23 1.23 86 1020.9
20260509191003 58 248 2.0 6.0 0.00 1.23 1.23 86 1020.9
20260509190004 58 216 3.0 7.0 0.00 1.23 1.23 85 1020.9
20260509185503 58 237 2.0 6.0 0.00 1.23 1.23 84 1020.6
20260509184504 58 229 2.0 6.0 0.00 1.23 1.23 87 1020.8
20260509183504 58 114 2.0 7.0 0.00 1.23 1.23 87 1020.3
20260509183003 59 237 2.0 7.0 0.00 1.23 1.23 88 1020.1
20260509182504 59 89 0.0 3.0 0.00 1.23 1.23 89 1020.1
20260509182004 59 100 1.0 3.0 0.00 1.23 1.23 89 1019.9
20260509181504 59 49 1.0 3.0 0.00 1.23 1.23 89 1019.9
20260509180504 59 32 2.0 3.0 0.00 1.23 1.23 88 1019.8
20260509175004 60 46 2.0 5.0 0.00 1.23 1.23 86 1019.7
20260509174504 60 60 3.0 6.0 0.00 1.23 1.23 84 1019.5
20260509174004 61 351 0.0 3.0 0.00 1.23 1.23 83 1019.4
20260509173504 61 301 1.0 5.0 0.00 1.23 1.23 81 1019.2
20260509173004 61 232 1.0 2.0 0.00 1.23 1.23 77 1019.4
20260509172005 61 47 2.0 3.0 0.00 1.23 1.23 77 1019.2
20260509171503 61 53 1.0 3.0 0.00 1.23 1.23 77 1019.2
20260509171004 61 37 2.0 5.0 0.00 1.23 1.23 76 1019.2
20260509170504 62 40 2.0 6.0 0.00 1.23 1.23 76 1019.0
20260509170004 62 39 3.0 6.0 0.00 1.23 1.23 76 1018.7
20260509165503 63 33 1.0 6.0 0.00 1.23 1.23 74 1018.7
20260509164504 63 1 1.0 3.0 0.00 1.23 1.23 73 1018.6
20260509164004 64 92 1.0 2.0 0.00 1.23 1.23 72 1018.7
20260509163503 63 18 1.0 2.0 0.00 1.23 1.23 73 1018.7
20260509162504 62 44 2.0 6.0 0.00 1.23 1.23 76 1018.6
20260509162004 62 55 3.0 6.0 0.00 1.23 1.23 76 1018.4
20260509161504 63 55 2.0 6.0 0.00 1.23 1.23 77 1018.5
20260509161004 62 33 1.0 5.0 0.00 1.23 1.23 77 1018.6
20260509160504 62 38 2.0 6.0 0.00 1.23 1.23 77 1018.6
20260509160004 63 56 3.0 6.0 0.00 1.23 1.23 77 1018.8
20260509155503 62 284 1.0 3.0 0.00 1.23 1.23 78 1018.8
20260509154504 60 34 2.0 5.0 0.00 1.23 1.23 82 1019.0
20260509154004 60 52 3.0 6.0 0.00 1.23 1.23 83 1018.9
20260509153504 60 42 3.0 9.0 0.00 1.23 1.23 81 1019.3
20260509153003 60 40 3.0 6.0 0.00 1.23 1.23 81 1019.1
20260509152504 60 37 3.0 7.0 0.00 1.23 1.23 80 1019.0
20260509152004 60 41 3.0 7.0 0.00 1.23 1.23 80 1018.8
20260509151504 60 212 2.0 7.0 0.00 1.23 1.23 81 1019.0
20260509151003 60 62 2.0 3.0 0.00 1.23 1.23 82 1018.7
20260509150003 61 36 2.0 6.0 0.00 1.23 1.23 83 1018.5
20260509145504 61 52 2.0 7.0 0.00 1.23 1.23 82 1018.7
20260509145003 61 60 2.0 5.0 0.00 1.23 1.23 81 1018.5
20260509144504 60 47 1.0 6.0 0.00 1.23 1.23 82 1018.8
20260509144004 59 23 3.0 6.0 0.00 1.23 1.23 82 1018.8
20260509143504 60 42 2.0 5.0 0.00 1.23 1.23 81 1018.8
20260509143004 60 49 2.0 5.0 0.00 1.23 1.23 80 1018.8
20260509142504 60 37 2.0 3.0 0.00 1.23 1.23 80 1018.6
20260509142003 60 37 2.0 6.0 0.00 1.23 1.23 81 1018.5
20260509141503 59 23 1.0 3.0 0.00 1.23 1.23 84 1018.8
20260509141004 58 40 1.0 3.0 0.00 1.23 1.23 90 1018.8
20260509135504 56 34 1.0 3.0 0.00 1.23 1.23 96 1019.4
20260509135004 55 39 3.0 5.0 0.00 1.23 1.23 96 1019.6
20260509134504 55 58 2.0 7.0 0.00 1.23 1.23 97 1019.6
20260509134004 56 30 2.0 7.0 0.00 1.23 1.23 97 1019.4
20260509133504 55 39 2.0 3.0 0.00 1.23 1.23 97 1019.5
20260509133004 56 41 2.0 5.0 0.01 1.23 1.23 97 1019.7
20260509132504 55 24 2.0 6.0 0.01 1.23 1.23 97 1019.7
20260509132004 55 54 4.0 7.0 0.01 1.23 1.23 97 1019.5
20260509131504 54 38 3.0 7.0 0.01 1.23 1.23 97 1019.7
20260509131004 55 36 2.0 5.0 0.02 1.23 1.23 97 1019.5
20260509125503 55 33 3.0 5.0 0.03 1.23 1.23 97 1019.6
20260509125003 55 30 2.0 6.0 0.03 1.23 1.23 97 1019.8
20260509124504 54 39 3.0 7.0 0.04 1.23 1.23 97 1019.8
20260509124004 54 47 3.0 7.0 0.04 1.23 1.23 97 1020.4
20260509123504 54 56 3.0 6.0 0.05 1.23 1.23 97 1020.6
20260509123004 54 30 2.0 5.0 0.05 1.22 1.22 97 1020.7
20260509122504 54 44 0.0 2.0 0.06 1.22 1.22 97 1020.9
20260509122005 54 48 1.0 2.0 0.08 1.22 1.22 97 1021.1
20260509121504 54 37 2.0 5.0 0.10 1.22 1.22 97 1021.0
20260509121004 54 223 0.0 1.0 0.12 1.21 1.21 97 1021.0
20260509120504 54 243 1.0 2.0 0.14 1.20 1.20 97 1021.2
20260509120004 54 230 1.0 2.0 0.16 1.20 1.20 97 1021.0
20260509115504 54 236 0.0 1.0 0.18 1.20 1.20 97 1020.9
20260509115004 53 236 0.0 1.0 0.20 1.20 1.20 97 1020.8
20260509114004 54 236 0.0 1.0 0.31 1.19 1.19 97 1020.8
20260509113504 54 237 0.0 1.0 0.32 1.18 1.18 97 1021.1
20260509113004 53 198 1.0 3.0 0.32 1.17 1.17 97 1021.1
20260509111504 53 75 1.0 2.0 0.31 1.12 1.12 97 1020.9
20260509111003 53 45 1.0 3.0 0.29 1.09 1.09 97 1020.9
20260509110504 53 32 2.0 3.0 0.28 1.06 1.06 97 1020.9
20260509105504 53 47 2.0 6.0 0.26 1.02 1.02 97 1021.4
20260509105004 53 247 1.0 3.0 0.25 1.00 1.00 97 1021.3
20260509104503 53 243 2.0 6.0 0.16 0.91 0.91 97 1021.8
20260509104003 53 235 2.0 5.0 0.14 0.88 0.88 97 1021.7
20260509103504 53 235 2.0 5.0 0.13 0.86 0.86 97 1021.6
20260509103004 53 228 2.0 5.0 0.12 0.85 0.85 97 1021.1
20260509102504 53 230 1.0 2.0 0.11 0.84 0.84 97 1020.9
20260509102003 53 238 1.0 2.0 0.10 0.82 0.82 97 1020.7
20260509101504 53 228 0.0 1.0 0.09 0.81 0.81 97 1021.0
20260509100503 53 43 1.0 3.0 0.15 0.78 0.78 97 1020.3
20260509100005 53 36 3.0 5.0 0.14 0.77 0.77 97 1020.3
20260509095503 53 55 1.0 2.0 0.18 0.76 0.76 98 1020.1
20260509095004 53 343 0.0 3.0 0.21 0.75 0.75 98 1020.0
20260509094504 53 49 1.0 3.0 0.22 0.75 0.75 98 1019.7
20260509093504 53 55 1.0 6.0 0.26 0.73 0.73 98 1019.7
20260509092005 54 49 2.0 3.0 0.31 0.72 0.72 98 1019.8
20260509091504 54 42 3.0 7.0 0.36 0.72 0.72 98 1019.5
20260509091004 54 50 4.0 8.0 0.32 0.67 0.67 98 1019.1
20260509090504 54 42 3.0 6.0 0.31 0.63 0.63 98 1019.7
20260509090004 54 40 2.0 9.0 0.36 0.63 0.63 97 1019.6
20260509085504 54 31 5.0 10.0 0.37 0.58 0.58 97 1018.6
20260509085004 54 45 2.0 7.0 0.35 0.54 0.54 97 1019.3
20260509084504 54 45 5.0 10.0 0.36 0.53 0.53 97 1019.0
20260509084004 54 51 6.0 9.0 0.35 0.50 0.50 97 1018.8
20260509083504 54 41 6.0 10.0 0.34 0.47 0.47 97 1018.8
20260509083005 54 42 6.0 10.0 0.33 0.45 0.45 97 1019.5
20260509082504 54 43 3.0 7.0 0.33 0.44 0.44 97 1019.6
20260509082004 55 40 3.0 6.0 0.31 0.41 0.41 97 1019.4
20260509081503 55 297 1.0 3.0 0.27 0.36 0.36 97 1019.5
20260509081005 55 216 2.0 3.0 0.28 0.35 0.35 97 1019.9
20260509080504 55 121 1.0 7.0 0.27 0.32 0.32 97 1019.4
20260509080003 55 41 2.0 6.0 0.23 0.27 0.27 97 1018.9
20260509075503 54 72 3.0 7.0 0.19 0.21 0.21 97 1019.2
20260509075003 54 52 2.0 5.0 0.18 0.19 0.19 97 1018.8
20260509074504 55 88 1.0 5.0 0.16 0.17 0.17 97 1019.0
20260509074003 55 42 4.0 6.0 0.14 0.15 0.15 97 1019.6
20260509073503 55 39 2.0 6.0 0.12 0.13 0.13 97 1020.0